Location: Bratislava
(48.1500°N, 17.1170°E)
Time: 20:35:58
(UTC+01:00)

ISS - Visible Passes

Search period start: 09 December 2018 00:00
Search period end: 19 December 2018 00:00
Orbit: 401 x 408 km, 51.6° (Epoch: 10 December)

Date Brightness Start Highest point End Pass type
(mag) Time Alt. Az. Time Alt. Az. Time Alt. Az.
09 Dec -3.7 16:46:33 10° WNW 16:49:48 59° NNE 16:53:02 10° E visible
09 Dec -2.3 18:23:09 10° WNW 18:25:52 35° SW 18:25:52 35° SW visible
10 Dec -3.3 17:30:51 10° WNW 17:34:04 59° SSW 17:36:18 18° SE visible
10 Dec -0.3 19:08:58 10° WSW 19:09:00 10° WSW 19:09:00 10° WSW visible
11 Dec -3.8 16:38:36 10° WNW 16:41:53 90° SE 16:45:09 10° ESE visible
11 Dec -1.2 18:15:39 10° W 18:18:01 19° SW 18:19:41 13° S visible
12 Dec -1.9 17:23:02 10° W 17:25:57 30° SW 17:28:52 10° SSE visible
13 Dec -2.8 16:30:38 10° WNW 16:33:49 49° SSW 16:36:59 10° SE visible
14 Dec -0.7 17:15:36 10° W 17:17:40 16° SW 17:19:43 10° S visible
